{"data":{"norad_id":63049,"epoch":"2026-09-21T19:54:24.776352Z","epoch_age_seconds":50175,"freshness":"FRESH","line1":"1 63049U 25034W   26264.82945343  .00013670  00000+0  41491-3 0  9992","line2":"2 63049  53.1588  75.8211 0001113 106.8562 253.2562 15.34405483 88998","mean_motion":15.34405483,"eccentricity":0.0001113,"inclination_deg":53.1588,"raan_deg":75.8211,"arg_perigee_deg":106.8562,"mean_anomaly_deg":253.2562,"bstar":0.00041491,"rev_number":8899,"period_min":93.847422728481,"perigee_km":461.92555991922,"apogee_km":463.44832732907,"semimajor_km":6840.8239436241,"source":"CELESTRAK","updated_at":"2026-09-22T09:00:49.748259Z"}}